DC1MBB-9 Weather Reports


Display with metric or nautical units.
time (UTC)temp
F
wind
direction
speed
MPH
gust
MPH
rain 1hr
in
rain 24hr
in
rain mn
in
humidity
%
barometer
mb
20260508155801 71 0 0.0 0.0 0.00 0.00 0.00 36 957.0
20260508155200 71 0 0.0 0.0 0.00 0.00 0.00 37 957.0
20260508154600 71 0 0.0 0.0 0.00 0.00 0.00 37 957.0
20260508153959 71 0 0.0 0.0 0.00 0.00 0.00 36 957.0
20260508153358 72 0 0.0 0.0 0.00 0.00 0.00 37 957.0
20260508152757 71 0 0.0 0.0 0.00 0.00 0.00 37 957.0
20260508152156 72 0 0.0 0.0 0.00 0.00 0.00 36 957.0
20260508151556 72 0 0.0 0.0 0.00 0.00 0.00 35 958.0
20260508150955 72 0 0.0 0.0 0.00 0.00 0.00 35 958.0
20260508150354 72 0 0.0 0.0 0.00 0.00 0.00 35 958.0
20260508145753 73 0 0.0 0.0 0.00 0.00 0.00 34 958.0
20260508145153 74 0 0.0 0.0 0.00 0.00 0.00 33 958.0
20260508143951 74 0 0.0 0.0 0.00 0.00 0.00 33 958.0
20260508143350 74 0 0.0 0.0 0.00 0.00 0.00 34 958.0
20260508142749 76 0 0.0 0.0 0.00 0.00 0.00 33 958.0
20260508142149 77 0 0.0 0.0 0.00 0.00 0.00 33 958.0
20260508141548 77 0 0.0 0.0 0.00 0.00 0.00 31 958.0
20260508140947 77 0 0.0 0.0 0.00 0.00 0.00 31 958.0
20260508140346 79 0 0.0 0.0 0.00 0.00 0.00 30 958.0
20260508135745 81 0 0.0 0.0 0.00 0.00 0.00 29 958.0
20260508135145 83 0 0.0 0.0 0.00 0.00 0.00 27 958.0
20260508134544 80 0 0.0 0.0 0.00 0.00 0.00 31 958.0
20260508133943 79 0 0.0 0.0 0.00 0.00 0.00 32 958.0
20260508133342 78 0 0.0 0.0 0.00 0.00 0.00 32 958.0
20260508132741 80 0 0.0 0.0 0.00 0.00 0.00 31 958.0
20260508132141 78 0 0.0 0.0 0.00 0.00 0.00 32 958.0
20260508131540 77 0 0.0 0.0 0.00 0.00 0.00 33 958.0
20260508130939 77 0 0.0 0.0 0.00 0.00 0.00 33 958.0
20260508130338 79 0 0.0 0.0 0.00 0.00 0.00 31 958.0
20260508125737 76 0 0.0 0.0 0.00 0.00 0.00 34 958.0
20260508125137 80 0 0.0 0.0 0.00 0.00 0.00 31 958.0
20260508124536 81 0 0.0 0.0 0.00 0.00 0.00 30 958.0
20260508123935 80 0 0.0 0.0 0.00 0.00 0.00 31 958.0
20260508123334 77 0 0.0 0.0 0.00 0.00 0.00 32 959.0
20260508122734 74 0 0.0 0.0 0.00 0.00 0.00 38 959.0
20260508122133 74 0 0.0 0.0 0.00 0.00 0.00 37 959.0
20260508121532 73 0 0.0 0.0 0.00 0.00 0.00 41 959.0
20260508120931 72 0 0.0 0.0 0.00 0.00 0.00 40 958.0
20260508120330 70 0 0.0 0.0 0.00 0.00 0.00 43 959.0
20260508115730 70 0 0.0 0.0 0.00 0.00 0.00 43 959.0
20260508115129 69 0 0.0 0.0 0.00 0.00 0.00 42 959.0
20260508114528 69 0 0.0 0.0 0.00 0.00 0.00 44 959.0
20260508113927 69 0 0.0 0.0 0.00 0.00 0.00 43 959.0
20260508113326 70 0 0.0 0.0 0.00 0.00 0.00 43 959.0
20260508112726 69 0 0.0 0.0 0.00 0.00 0.00 45 959.0
20260508112125 69 0 0.0 0.0 0.00 0.00 0.00 44 959.0
20260508111524 68 0 0.0 0.0 0.00 0.00 0.00 44 959.0
20260508110923 68 0 0.0 0.0 0.00 0.00 0.00 45 959.0
20260508110322 68 0 0.0 0.0 0.00 0.00 0.00 45 959.0
20260508105722 67 0 0.0 0.0 0.00 0.00 0.00 46 959.0
20260508104520 66 0 0.0 0.0 0.00 0.00 0.00 49 959.0
20260508103319 66 0 0.0 0.0 0.00 0.00 0.00 47 959.0
20260508102718 67 0 0.0 0.0 0.00 0.00 0.00 51 959.0
20260508102117 67 0 0.0 0.0 0.00 0.00 0.00 50 959.0
20260508101516 66 0 0.0 0.0 0.00 0.00 0.00 52 959.0
20260508100916 66 0 0.0 0.0 0.00 0.00 0.00 48 959.0
20260508100315 66 0 0.0 0.0 0.00 0.00 0.00 51 959.0
20260508095714 65 0 0.0 0.0 0.00 0.00 0.00 51 959.0
20260508095113 65 0 0.0 0.0 0.00 0.00 0.00 50 959.0
20260508094512 65 0 0.0 0.0 0.00 0.00 0.00 52 959.0
20260508093912 64 0 0.0 0.0 0.00 0.00 0.00 53 959.0
20260508093311 65 0 0.0 0.0 0.00 0.00 0.00 52 959.0
20260508092710 64 0 0.0 0.0 0.00 0.00 0.00 53 959.0
20260508092109 65 0 0.0 0.0 0.00 0.00 0.00 54 959.0
20260508091509 64 0 0.0 0.0 0.00 0.00 0.00 56 959.0
20260508090908 63 0 0.0 0.0 0.00 0.00 0.00 55 959.0
20260508090307 64 0 0.0 0.0 0.00 0.00 0.00 56 959.0
20260508085706 63 0 0.0 0.0 0.00 0.00 0.00 58 959.0
20260508085105 63 0 0.0 0.0 0.00 0.00 0.00 59 959.0
20260508084505 62 0 0.0 0.0 0.00 0.00 0.00 59 959.0
20260508083904 62 0 0.0 0.0 0.00 0.00 0.00 61 959.0
20260508083303 61 0 0.0 0.0 0.00 0.00 0.00 62 959.0
20260508082702 61 0 0.0 0.0 0.00 0.00 0.00 64 959.0
20260508082102 60 0 0.0 0.0 0.00 0.00 0.00 65 959.0
20260508081501 60 0 0.0 0.0 0.00 0.00 0.00 65 959.0
20260508080900 60 0 0.0 0.0 0.00 0.00 0.00 67 959.0
20260508080259 60 0 0.0 0.0 0.00 0.00 0.00 68 959.0
20260508075659 59 0 0.0 0.0 0.00 0.00 0.00 68 959.0
20260508075058 59 0 0.0 0.0 0.00 0.00 0.00 70 959.0
20260508074457 58 0 0.0 0.0 0.00 0.00 0.00 71 959.0
20260508073856 58 0 0.0 0.0 0.00 0.00 0.00 72 959.0
20260508073255 58 0 0.0 0.0 0.00 0.00 0.00 72 959.0
20260508072655 57 0 0.0 0.0 0.00 0.00 0.00 74 959.0
20260508072054 57 0 0.0 0.0 0.00 0.00 0.00 74 959.0
20260508071453 57 0 0.0 0.0 0.00 0.00 0.00 76 959.0
20260508070852 57 0 0.0 0.0 0.00 0.00 0.00 76 959.0
20260508070252 56 0 0.0 0.0 0.00 0.00 0.00 78 959.0
20260508065651 56 0 0.0 0.0 0.00 0.00 0.00 79 959.0
20260508065050 56 0 0.0 0.0 0.00 0.00 0.00 79 959.0
20260508064449 55 0 0.0 0.0 0.00 0.00 0.00 80 959.0
20260508063849 55 0 0.0 0.0 0.00 0.00 0.00 82 959.0
20260508063248 55 0 0.0 0.0 0.00 0.00 0.00 82 959.0
20260508062647 54 0 0.0 0.0 0.00 0.00 0.00 82 959.0
20260508062046 54 0 0.0 0.0 0.00 0.00 0.00 83 959.0
20260508061445 54 0 0.0 0.0 0.00 0.00 0.00 83 959.0
20260508060845 54 0 0.0 0.0 0.00 0.00 0.00 84 959.0
20260508060244 53 0 0.0 0.0 0.00 0.00 0.00 84 959.0
20260508055643 53 0 0.0 0.0 0.00 0.00 0.00 84 959.0
20260508055042 53 0 0.0 0.0 0.00 0.00 0.00 86 959.0
20260508054442 53 0 0.0 0.0 0.00 0.00 0.00 87 959.0
20260508053841 52 0 0.0 0.0 0.00 0.00 0.00 86 959.0
20260508053240 52 0 0.0 0.0 0.00 0.00 0.00 87 959.0
20260508052639 52 0 0.0 0.0 0.00 0.00 0.00 88 959.0
20260508052039 51 0 0.0 0.0 0.00 0.00 0.00 90 959.0
20260508051438 51 0 0.0 0.0 0.00 0.00 0.00 90 959.0
20260508050837 50 0 0.0 0.0 0.00 0.00 0.00 89 959.0
20260508050236 50 0 0.0 0.0 0.00 0.00 0.00 88 959.0
20260508045636 50 0 0.0 0.0 0.00 0.00 0.00 88 959.0
20260508045035 50 0 0.0 0.0 0.00 0.00 0.00 86 959.0
20260508044434 50 0 0.0 0.0 0.00 0.00 0.00 88 959.0
20260508043833 49 0 0.0 0.0 0.00 0.00 0.00 87 959.0
20260508043233 49 0 0.0 0.0 0.00 0.00 0.00 84 959.0
20260508042632 49 0 0.0 0.0 0.00 0.00 0.00 83 959.0
20260508042031 49 0 0.0 0.0 0.00 0.00 0.00 82 959.0
20260508041430 49 0 0.0 0.0 0.00 0.00 0.00 83 958.0
20260508040830 49 0 0.0 0.0 0.00 0.00 0.00 84 958.0
20260508040229 49 0 0.0 0.0 0.00 0.00 0.00 83 958.0
20260508035628 49 0 0.0 0.0 0.00 0.00 0.00 85 958.0
20260508035027 49 0 0.0 0.0 0.00 0.00 0.00 84 958.0
20260508034427 49 0 0.0 0.0 0.00 0.00 0.00 85 958.0
20260508033826 49 0 0.0 0.0 0.00 0.00 0.00 83 958.0
20260508033225 49 0 0.0 0.0 0.00 0.00 0.00 83 958.0
20260508032624 50 0 0.0 0.0 0.00 0.00 0.00 81 958.0
20260508032024 49 0 0.0 0.0 0.00 0.00 0.00 83 958.0
20260508031423 50 0 0.0 0.0 0.00 0.00 0.00 82 958.0
20260508030822 50 0 0.0 0.0 0.00 0.00 0.00 82 958.0
20260508030221 50 0 0.0 0.0 0.00 0.00 0.00 82 958.0
20260508025621 49 0 0.0 0.0 0.00 0.00 0.00 82 958.0
20260508025020 50 0 0.0 0.0 0.00 0.00 0.00 82 958.0
20260508024419 50 0 0.0 0.0 0.00 0.00 0.00 82 958.0
20260508023818 50 0 0.0 0.0 0.00 0.00 0.00 82 958.0
20260508023218 50 0 0.0 0.0 0.00 0.00 0.00 82 958.0
20260508022617 50 0 0.0 0.0 0.00 0.00 0.00 81 958.0
20260508022016 50 0 0.0 0.0 0.00 0.00 0.00 83 958.0
20260508021415 51 0 0.0 0.0 0.00 0.00 0.00 82 958.0
20260508020815 50 0 0.0 0.0 0.00 0.00 0.00 83 958.0
20260508020214 51 0 0.0 0.0 0.00 0.00 0.00 83 958.0
20260508015613 50 0 0.0 0.0 0.00 0.00 0.00 83 958.0
20260508015012 50 0 0.0 0.0 0.00 0.00 0.00 83 959.0
20260508014412 51 0 0.0 0.0 0.00 0.00 0.00 82 958.0
20260508013811 51 0 0.0 0.0 0.00 0.00 0.00 82 959.0
20260508013210 51 0 0.0 0.0 0.00 0.00 0.00 84 959.0
20260508012609 51 0 0.0 0.0 0.00 0.00 0.00 83 959.0
20260508012008 52 0 0.0 0.0 0.00 0.00 0.00 83 959.0
20260508011408 52 0 0.0 0.0 0.00 0.00 0.00 82 959.0
20260508010807 52 0 0.0 0.0 0.00 0.00 0.00 84 959.0
20260508010206 52 0 0.0 0.0 0.00 0.00 0.00 83 959.0
20260508005605 52 0 0.0 0.0 0.00 0.00 0.00 82 959.0
20260508005203 52 0 0.0 0.0 0.00 0.00 0.00 82 959.0
20260508005005 52 0 0.0 0.0 0.00 0.00 0.00 82 959.0
20260508004404 52 0 0.0 0.0 0.00 0.00 0.00 82 959.0
20260508003803 52 0 0.0 0.0 0.00 0.00 0.00 81 959.0
20260508003202 53 0 0.0 0.0 0.00 0.00 0.00 80 959.0
20260508002602 52 0 0.0 0.0 0.00 0.00 0.00 82 959.0
20260508002001 53 0 0.0 0.0 0.00 0.00 0.00 81 959.0
20260508001400 53 0 0.0 0.0 0.00 0.00 0.00 81 959.0
20260508000759 53 0 0.0 0.0 0.00 0.00 0.00 80 959.0
20260508000159 53 0 0.0 0.0 0.00 0.00 0.00 81 959.0
20260507235558 54 0 0.0 0.0 0.00 0.00 0.00 80 959.0
20260507234957 54 0 0.0 0.0 0.00 0.00 0.00 80 959.0
20260507234356 54 0 0.0 0.0 0.00 0.00 0.00 79 959.0
20260507233756 54 0 0.0 0.0 0.00 0.00 0.00 80 959.0
20260507233155 54 0 0.0 0.0 0.00 0.00 0.00 79 959.0
20260507232554 54 0 0.0 0.0 0.00 0.00 0.00 79 959.0
20260507231953 54 0 0.0 0.0 0.00 0.00 0.00 79 959.0
20260507231352 55 0 0.0 0.0 0.00 0.00 0.00 78 959.0
20260507230752 54 0 0.0 0.0 0.00 0.00 0.00 79 959.0
20260507230151 55 0 0.0 0.0 0.00 0.00 0.00 81 959.0
20260507225550 55 0 0.0 0.0 0.00 0.00 0.00 79 959.0
20260507224949 55 0 0.0 0.0 0.00 0.00 0.00 77 959.0
20260507224349 55 0 0.0 0.0 0.00 0.00 0.00 78 959.0
20260507223748 55 0 0.0 0.0 0.00 0.00 0.00 78 959.0
20260507223147 55 0 0.0 0.0 0.00 0.00 0.00 76 959.0
20260507222546 55 0 0.0 0.0 0.00 0.00 0.00 77 959.0
20260507221946 55 0 0.0 0.0 0.00 0.00 0.00 78 959.0
20260507221345 55 0 0.0 0.0 0.00 0.00 0.00 79 959.0
20260507220744 55 0 0.0 0.0 0.00 0.00 0.00 78 959.0
20260507220143 55 0 0.0 0.0 0.00 0.00 0.00 78 959.0
20260507215543 54 0 0.0 0.0 0.00 0.00 0.00 78 959.0
20260507214942 55 0 0.0 0.0 0.00 0.00 0.00 76 959.0
20260507214341 55 0 0.0 0.0 0.00 0.00 0.00 76 959.0
20260507213741 55 0 0.0 0.0 0.00 0.00 0.00 76 959.0
20260507213140 56 0 0.0 0.0 0.00 0.00 0.00 75 959.0
20260507212539 56 0 0.0 0.0 0.00 0.00 0.00 75 959.0
20260507211938 56 0 0.0 0.0 0.00 0.00 0.00 75 959.0
20260507211337 56 0 0.0 0.0 0.00 0.00 0.00 75 959.0
20260507210736 56 0 0.0 0.0 0.00 0.00 0.00 73 959.0
20260507210136 56 0 0.0 0.0 0.00 0.00 0.00 74 959.0
20260507205535 56 0 0.0 0.0 0.00 0.00 0.00 74 959.0
20260507204934 56 0 0.0 0.0 0.00 0.00 0.00 74 959.0
20260507204333 56 0 0.0 0.0 0.00 0.00 0.00 75 959.0
20260507203733 56 0 0.0 0.0 0.00 0.00 0.00 73 959.0
20260507203132 56 0 0.0 0.0 0.00 0.00 0.00 72 959.0
20260507202531 57 0 0.0 0.0 0.00 0.00 0.00 71 959.0
20260507201930 57 0 0.0 0.0 0.00 0.00 0.00 72 959.0
20260507201330 57 0 0.0 0.0 0.00 0.00 0.00 70 959.0
20260507200729 57 0 0.0 0.0 0.00 0.00 0.00 71 959.0
20260507200128 57 0 0.0 0.0 0.00 0.00 0.00 69 959.0
20260507195527 58 0 0.0 0.0 0.00 0.00 0.00 68 959.0
20260507194926 58 0 0.0 0.0 0.00 0.00 0.00 68 959.0
20260507193725 58 0 0.0 0.0 0.00 0.00 0.00 67 959.0
20260507193124 59 0 0.0 0.0 0.00 0.00 0.00 66 959.0
20260507192523 59 0 0.0 0.0 0.00 0.00 0.00 65 959.0
20260507191923 59 0 0.0 0.0 0.00 0.00 0.00 64 958.0
20260507191322 59 0 0.0 0.0 0.00 0.00 0.00 64 958.0
20260507190721 60 0 0.0 0.0 0.00 0.00 0.00 63 958.0
20260507190120 59 0 0.0 0.0 0.00 0.00 0.00 63 958.0
20260507185520 60 0 0.0 0.0 0.00 0.00 0.00 62 958.0
20260507184919 60 0 0.0 0.0 0.00 0.00 0.00 62 958.0
20260507184318 60 0 0.0 0.0 0.00 0.00 0.00 61 958.0
20260507183717 60 0 0.0 0.0 0.00 0.00 0.00 61 958.0
20260507183117 60 0 0.0 0.0 0.00 0.00 0.00 60 958.0
20260507182516 60 0 0.0 0.0 0.00 0.00 0.00 58 958.0
20260507181915 60 0 0.0 0.0 0.00 0.00 0.00 58 958.0
20260507181314 61 0 0.0 0.0 0.00 0.00 0.00 56 958.0
20260507180713 61 0 0.0 0.0 0.00 0.00 0.00 55 958.0
20260507180113 61 0 0.0 0.0 0.00 0.00 0.00 55 957.0
20260507175512 62 0 0.0 0.0 0.00 0.00 0.00 53 957.0
20260507174911 62 0 0.0 0.0 0.00 0.00 0.00 53 957.0
20260507174310 62 0 0.0 0.0 0.00 0.00 0.00 52 957.0
20260507173710 63 0 0.0 0.0 0.00 0.00 0.00 50 957.0
20260507173109 63 0 0.0 0.0 0.00 0.00 0.00 52 957.0
20260507172508 63 0 0.0 0.0 0.00 0.00 0.00 51 957.0
20260507171907 64 0 0.0 0.0 0.00 0.00 0.00 51 957.0
20260507171306 62 0 0.0 0.0 0.00 0.00 0.00 53 957.0
20260507170706 63 0 0.0 0.0 0.00 0.00 0.00 52 957.0
20260507170105 63 0 0.0 0.0 0.00 0.00 0.00 52 957.0
20260507165504 64 0 0.0 0.0 0.00 0.00 0.00 51 957.0
20260507164903 64 0 0.0 0.0 0.00 0.00 0.00 51 957.0
20260507164303 63 0 0.0 0.0 0.00 0.00 0.00 51 957.0
20260507163702 64 0 0.0 0.0 0.00 0.00 0.00 49 957.0
20260507163101 64 0 0.0 0.0 0.00 0.00 0.00 49 957.0
20260507162500 64 0 0.0 0.0 0.00 0.00 0.00 48 957.0
20260507161859 65 0 0.0 0.0 0.00 0.00 0.00 48 957.0
20260507161259 65 0 0.0 0.0 0.00 0.00 0.00 48 957.0
20260507160658 66 0 0.0 0.0 0.00 0.00 0.00 46 957.0
20260507160057 66 0 0.0 0.0 0.00 0.00 0.00 47 957.0